Weather History for Roswell, NM

Change the Weather History Date:

Tuesday, October 29, 2013

  Actual Average Record
Temperature  
Mean Temperature 64 °F 56 °F  
Max Temperature 75 °F 71 °F 89 °F (2003)
Min Temperature 52 °F 42 °F 20 °F (1917)
Degree Days  
Heating Degree Days 1 9  
Month to date heating degree days 161 140  
Since 1 July heating degree days 161 156  
Cooling Degree Days 0 0  
Month to date cooling degree days 34 35  
Year to date cooling degree days 2174 1786  
Growing Degree Days 14 (Base 50)    
Moisture  
Dew Point 37 °F    
Average Humidity 44    
Maximum Humidity 72    
Minimum Humidity 16    
Precipitation  
Precipitation 0.00 in 0.03 in 0.93 in (1928)
Month to date precipitation 0.21 1.16  
Year to date precipitation 8.55 11.62  
Sea Level Pressure  
Sea Level Pressure 29.82 in    
Wind  
Wind Speed 7 mph (South)    
Max Wind Speed 23 mph    
Max Gust Speed 28 mph    
Visibility 10 miles    
Events      
T = Trace of Precipitation, MM = Missing Value Source: NWS Daily Summary

Daily Weather History Graph

Daily Weather History Graph

Search for Another Location

Airport:

Trip Planner

Search our weather history database for the weather conditions in past years. The results will help you decide how hot, cold, wet, or windy it might be!

Date:

Astronomy

Oct. 29, 2013 Rise Set
Actual Time 7:14 AM MDT 6:08 PM MDT
Civil Twilight 6:48 AM MDT 6:34 PM MDT
Nautical Twilight 6:19 AM MDT 7:03 PM MDT
Astronomical Twilight 5:50 AM MDT 7:32 PM MDT
Moon 2:21 AM MDT (10/29) 3:10 PM MDT (10/29)
Length of Visible Light 11h 45m
Length of Day
10h 54m
Waning Crescent, 24% of the Moon is Illuminated
Oct 29
Waning Crescent
Nov 3
New
Nov 9
First Quarter
Nov 17
Full
Nov 25
Last Quarter

Hourly Weather History & Observations

Time (MDT) Temp. Dew Point Humidity Pressure Visibility Wind Dir Wind Speed Gust Speed Precip Events Conditions
12:51 AM 63.0 °F 30.0 °F 29% 29.79 in 10.0 mi South 10.4 mph - N/A   Clear
1:51 AM 63.0 °F 30.0 °F 29% 29.78 in 10.0 mi South 10.4 mph - N/A   Clear
2:51 AM 59.0 °F 42.1 °F 53% 29.79 in 10.0 mi South 4.6 mph - N/A   Clear
3:51 AM 57.9 °F 43.0 °F 58% 29.78 in 10.0 mi WSW 5.8 mph - N/A   Clear
4:51 AM 57.0 °F 44.1 °F 62% 29.80 in 10.0 mi SSW 4.6 mph - N/A   Clear
5:51 AM 57.0 °F 39.0 °F 51% 29.82 in 10.0 mi West 4.6 mph - N/A   Clear
6:51 AM 57.9 °F 42.1 °F 56% 29.83 in 10.0 mi WNW 3.5 mph - N/A   Clear
7:51 AM 55.9 °F 46.9 °F 72% 29.86 in 10.0 mi Calm Calm - N/A   Clear
8:51 AM 59.0 °F 50.0 °F 72% 29.88 in 10.0 mi Calm Calm - N/A   Clear
9:51 AM 57.9 °F 48.9 °F 72% 29.91 in 10.0 mi ESE 5.8 mph - N/A   Partly Cloudy
10:51 AM 62.1 °F 50.0 °F 65% 29.88 in 10.0 mi SE 8.1 mph - N/A   Clear
11:51 AM 64.0 °F 48.9 °F 58% 29.87 in 10.0 mi SE 9.2 mph - N/A   Clear
12:51 PM 68.0 °F 44.1 °F 42% 29.82 in 10.0 mi East 5.8 mph - N/A   Clear
1:51 PM 70.0 °F 45.0 °F 41% 29.78 in 10.0 mi ENE 5.8 mph - N/A   Clear
2:51 PM 71.1 °F 45.0 °F 39% 29.76 in 10.0 mi Variable 4.6 mph - N/A   Clear
3:51 PM 70.0 °F 42.1 °F 36% 29.78 in 10.0 mi Calm Calm - N/A   Clear
4:51 PM 75.0 °F 26.1 °F 16% 29.77 in 10.0 mi South 20.7 mph - N/A   Clear
5:51 PM 72.0 °F 27.0 °F 19% 29.79 in 10.0 mi South 9.2 mph - N/A   Clear
6:51 PM 71.1 °F 25.0 °F 18% 29.79 in 10.0 mi South 12.7 mph - N/A   Clear
7:51 PM 68.0 °F 24.1 °F 19% 29.80 in 10.0 mi South 6.9 mph - N/A   Clear
8:51 PM 66.0 °F 21.9 °F 19% 29.80 in 10.0 mi WSW 11.5 mph - N/A   Clear
9:51 PM 60.1 °F 21.9 °F 23% 29.83 in 10.0 mi South 6.9 mph - N/A   Clear
10:51 PM 55.9 °F 21.9 °F 27% 29.82 in 10.0 mi SSW 8.1 mph - N/A   Clear
11:51 PM 54.0 °F 24.1 °F 31% 29.82 in 10.0 mi SSE 5.8 mph - N/A   Clear